Home   Weather   Abbotsford   Past weeks

Flag for Canada Past Weather in Abbotsford, British Columbia, Canada — Yesterday and Last 2 Weeks

54 °F

Partly sunny.

Feels Like: 54 °F
Forecast: 46 / 56 °F
Wind: 2 mph from North

Location: Abbotsford

Current Time: Oct 21, 2016 at 1:20:53 PM

Latest Report: Oct 21, 2016 at 12:00 PM

Visibility: 30 mi

Pressure: 29.95 "Hg

Humidity: 77%

Dew Point: 46 °F

Location of AbbotsfordLocation

Past Weather in Abbotsford — Graph


Abbotsford Temperature Yesterday

Maximum temperature yesterday: 59 °F (at 2:00 PM)
Minimum temperature yesterday: 43 °F (at 11:00 PM)
Average temperature yesterday: 51 °F

High & Low Weather Summary for the Past Weeks

High61 °F (Oct 7, 3:00 PM)100% (Oct 6, 8:00 PM)30.32 "Hg (Oct 6, 8:00 PM)
Low36 °F (Oct 12, 4:00 AM)33% (Oct 10, 2:00 PM)29.06 "Hg (Oct 15, 6:00 PM)
Average51 °F84%29.82 "Hg
* Reported Oct 6 12:00 PM — Oct 21 12:00 PM, Abbotsford, Weather by CustomWeather, © 2016

Note: Actual official high and low records may vary slightly from our data, if they occured in-between our weather recording intervals... More about our weather records


Abbotsford Weather History for the Previous 24 Hours

Scroll right to see more
Time TempWeatherWind HumidityBarometerVisibility
12:00 PM
Fri, Oct 21
54 °FPartly sunny.2 mph77%29.95 "Hg30 mi
11:00 AM50 °FPartly sunny.8 mph94%29.96 "Hg30 mi
10:00 AM48 °FBroken clouds.5 mph94%30.00 "Hg30 mi
9:00 AM46 °FBroken clouds.6 mph100%30.01 "Hg30 mi
8:00 AM46 °FPartly sunny.5 mph93%30.01 "Hg30 mi
7:00 AM46 °FPartly cloudy.5 mph93%30.02 "Hg15 mi
6:00 AM45 °FPassing clouds.5 mph100%30.04 "Hg10 mi
5:00 AM45 °FPassing clouds.7 mph100%30.04 "Hg10 mi
4:00 AM45 °FFog.5 mph100%30.06 "Hg6 mi
3:00 AM45 °FFog.8 mph100%30.07 "Hg1 mi
2:57 AM45 °FFog.6 mph100%30.07 "Hg1 mi
2:00 AM45 °FFog.6 mph100%30.08 "Hg10 mi
1:00 AM43 °FFog.3 mph93%30.09 "Hg10 mi
12:46 AM45 °FFog.3 mph100%30.09 "Hg15 mi
12:00 AM45 °FPassing clouds.2 mph100%30.09 "Hg15 mi
11:00 PM
Thu, Oct 20
43 °FPassing clouds.No wind100%30.10 "Hg15 mi
10:00 PM46 °FPassing clouds.2 mph100%30.09 "Hg15 mi
9:00 PM48 °FPassing clouds.3 mph94%30.09 "Hg15 mi
8:00 PM50 °FPassing clouds.3 mph88%30.08 "Hg15 mi
7:00 PM50 °FPassing clouds.5 mph88%30.07 "Hg15 mi
6:00 PM55 °FPassing clouds.8 mph77%30.05 "Hg20 mi
5:00 PM57 °FScattered clouds.10 mph77%30.04 "Hg20 mi
4:00 PM59 °FSprinkles. Broken clouds.10 mph77%30.03 "Hg20 mi
3:00 PM57 °FSprinkles. Broken clouds.14 mph82%30.02 "Hg15 mi
2:00 PM59 °FBroken clouds.15 mph77%30.00 "Hg20 mi
1:00 PM57 °FBroken clouds.3 mph88%29.99 "Hg20 mi
Weather by CustomWeather, © 2016

See weather overviewHow to use our weather pages